User: anonymous   Login
Location: Douglas
(31.5112°N, 82.8487°W)
Time: 08:54:18
(UTC-04:00)
Language:

OTV 5 (USA 277) - Orbit

View from above orbital plane
View from above orbital plane
View from above satellite
View from above satellite

Ground track
Ground track

The orbit data is extracted from the following two-line orbital elements,

1 42932U 17052A   18126.09283992 0.00000500  00000-0  20880-5 0    06
2 42932  54.5165  24.1187 0013291 207.4465 152.5534 15.84825701    01
Epoch (UTC): 06 May 2018 02:13:41
Eccentricity: 0.0013291
inclination: 54.5165°
perigee height: 308 km
apogee height: 326 km
right ascension of ascending node: 24.1187°
argument of perigee: 207.4465°
revolutions per day: 15.84825701
mean anomaly at epoch: 152.5534°
orbit number at epoch: 0

The dashed part of the orbit path shows where the satellite is in the earth's shadow,  

DLR